Regional Weather Roundup
Issued by NWS

Home | Current Version | Previous Version | Text Only | Print | Product List | Glossary On
Versions: 1 2 3 4 5 6 7 8 9 10 11 12 13 14 15 16 17 18 19 20 21 22 23 24 25 26 27 28 29 30 31 32 33 34 35 36 37 38 39 40 41 42 43 44 45 46 47 48 49 50
000
ASUS43 KLMK 250010
RWRKY
KENTUCKY REGIONAL WEATHER ROUNDUP
NATIONAL WEATHER SERVICE LOUISVILLE KY
800 PM EDT SUN JUL 24 2016

NOTE "FAIR" INDICATES FEW OR NO CLOUDS BELOW 12,000 FEET
WITH NO SIGNIFICANT WEATHER AND/OR OBSTRUCTIONS TO VISIBILITY.

KYZ001>023-026-027-061>063-070>075-250100-
WESTERN AND SOUTH CENTRAL KENTUCKY

CITY           SKY/WX    TMP DP  RH WIND       PRES   REMARKS
PADUCAH        SUNNY     88  77  69 S3        29.94R HX 100
HENDERSON      SUNNY     88  77  70 S3        29.93S HX 100
OWENSBORO      SUNNY     91  78  65 S7        29.96S HX 105
HOPKINSVILLE   CLOUDY    90  74  59 S3        29.96S HX 100
BOWLING GREEN  SUNNY     91  73  55 CALM      29.98R HX  99
GLASGOW        CLOUDY    88  75  65 CALM      29.99S HX  97
$$

KYZ024-025-028>034-038-045-046-053-250100-
NORTH CENTRAL KENTUCKY

CITY           SKY/WX    TMP DP  RH WIND       PRES   REMARKS
LOUISVILLE/SDF PTCLDY    91  72  53 SW9       29.96S HX  98
LOUISVILLE/LOU PTCLDY    92  73  53 SW3       29.97R HX 100
FORT KNOX      MOSUNNY   88  76  67 S5        29.97R HAZE    HX 100
$$

KYZ035>037-039>044-047>052-055>060-089>105-250100-
NORTHEAST KENTUCKY

CITY           SKY/WX    TMP DP  RH WIND       PRES   REMARKS
LEXINGTON      CLEAR     89  72  56 SW5       30.00S HX  96
COVINGTON      NOT AVBL
FRANKFORT      CLEAR     89  74  60 SW6       29.98R HX  98
$$

KYZ054-064>069-076>088-106>120-250100-
SOUTHEAST KENTUCKY

CITY           SKY/WX    TMP DP  RH WIND       PRES   REMARKS
JACKSON        PTCLDY    87  74  64 CALM      30.04R HX  95
LONDON         CLEAR     88  70  55 NW6       30.03R HX  93
SOMERSET       CLEAR     86  70  58 W3        30.03R HX  90
MIDDLESBORO    PTCLDY    86  76  71 CALM      30.02S HX  95
MONTICELLO     CLOUDY   N/A N/A N/A CALM      30.03S
$$




USA.gov is the U.S. government's official web portal to all federal, state and local government web resources and services.